Shelton, WA

4:42 AM PST on February 24, 2017 (GMT -0800)
Sanderson

Weather History for KSHN - December, 2012

Change the Weather History Date:

Tuesday, December 18, 2012

  Actual Average Record
Temperature  
Mean Temperature 32 °F -  
Max Temperature 34 °F 44 °F 55 °F (1958)
Min Temperature 30 °F 34 °F 21 °F (2008)
Degree Days  
Heating Degree Days 33    
Moisture  
Dew Point 32 °F    
Average Humidity 98    
Maximum Humidity 100    
Minimum Humidity 92    
Precipitation  
Precipitation 0.23 in - - ()
Sea Level Pressure  
Sea Level Pressure 29.92 in    
Wind  
Wind Speed 2 mph (South)    
Max Wind Speed 7 mph    
Max Gust Speed -    
Visibility 9 miles    
Events Snow    
Averages and records for this station are not official NWS values.
T = Trace of Precipitation, MM = Missing Value Source: NWS Daily Summary

Daily Weather History Graph

Daily Weather History Graph

Search for Another Location

Airport or City:

Trip Planner

Search our weather history database for the weather conditions in past years. The results will help you decide how hot, cold, wet, or windy it might be!

Date:

Astronomy

Dec. 18, 2012 Rise Set
Actual Time 7:55 AM PST 4:24 PM PST
Civil Twilight 7:19 AM PST 4:59 PM PST
Nautical Twilight 6:40 AM PST 5:38 PM PST
Astronomical Twilight 6:03 AM PST 6:16 PM PST
Moon 11:15 AM PST (12/18) 11:20 PM PST (12/18)
Length of Visible Light 9h 40m
Length of Day
8h 28m
Waxing Crescent, 36% of the Moon is Illuminated
Dec 18
Waxing Crescent
Dec 19
First Quarter
Dec 28
Full
Jan 4
Last Quarter
Jan 11
New

Hourly Weather History & Observations

Time (PST) Temp. Windchill Dew Point Humidity Pressure Visibility Wind Dir Wind Speed Gust Speed Precip Events Conditions
12:19 AM 33.8 °F - 32.0 °F 93% 29.87 in 8.0 mi Calm Calm - 0.01 in Snow Light Snow
12:34 AM 33.8 °F - 32.0 °F 93% 29.87 in 5.0 mi Calm Calm - 0.04 in Snow Light Snow
12:51 AM 33.8 °F 30.8 °F 32.0 °F 93% 29.86 in 9.0 mi East 3.5 mph - 0.04 in Snow Light Snow
12:53 AM 33.1 °F 30.0 °F 32.0 °F 96% 29.88 in 9.0 mi East 3.5 mph - 0.04 in Snow Light Snow
1:53 AM 32.0 °F 26.4 °F 32.0 °F 100% 29.88 in 8.0 mi SSE 5.8 mph - 0.08 in Snow Light Snow
2:01 AM 32.0 °F 25.6 °F 32.0 °F 100% 29.86 in 6.0 mi SSE 6.9 mph - 0.00 in Snow Light Snow
2:11 AM 32.0 °F 27.5 °F 32.0 °F 100% 29.86 in 9.0 mi SE 4.6 mph - 0.01 in Snow Light Snow
2:27 AM 33.8 °F 27.7 °F 32.0 °F 93% 29.87 in 7.0 mi SE 6.9 mph - 0.01 in Snow Light Snow
2:38 AM 33.8 °F - 32.0 °F 93% 29.87 in 5.0 mi Calm Calm - 0.03 in Snow Light Snow
2:53 AM 33.1 °F 30.0 °F 32.0 °F 96% 29.88 in 6.0 mi South 3.5 mph - 0.05 in Snow Light Snow
3:17 AM 33.8 °F 28.6 °F 32.0 °F 93% 29.86 in 7.0 mi SSE 5.8 mph - 0.02 in Snow Light Snow
3:53 AM 32.0 °F 27.5 °F 32.0 °F 100% 29.87 in 9.0 mi SE 4.6 mph - 0.03 in Snow Light Snow
4:07 AM 32.0 °F 28.7 °F 32.0 °F 100% 29.85 in 9.0 mi SE 3.5 mph - 0.00 in Snow Light Snow
4:45 AM 33.8 °F - 32.0 °F 93% 29.86 in 10.0 mi Calm Calm - 0.00 in   Overcast
4:53 AM 32.0 °F - 32.0 °F 100% 29.88 in 10.0 mi Calm Calm - 0.00 in   Mostly Cloudy
5:02 AM 32.0 °F 28.7 °F 32.0 °F 100% 29.86 in 10.0 mi South 3.5 mph - N/A   Mostly Cloudy
5:17 AM 32.0 °F - 32.0 °F 100% 29.87 in 10.0 mi Calm Calm - N/A   Overcast
5:38 AM 32.0 °F - 32.0 °F 100% 29.87 in 10.0 mi Calm Calm - N/A   Overcast
5:53 AM 32.0 °F - 32.0 °F 100% 29.89 in 10.0 mi Calm Calm - N/A   Overcast
6:27 AM 30.2 °F - 30.2 °F 100% 29.88 in 6.0 mi Calm Calm - N/A   Partly Cloudy
6:53 AM 30.9 °F - 30.0 °F 96% 29.90 in 5.0 mi Calm Calm - N/A   Partly Cloudy
7:19 AM 30.2 °F - 30.2 °F 100% 29.89 in 8.0 mi Calm Calm - N/A   Mostly Cloudy
7:53 AM 30.9 °F - 30.9 °F 100% 29.92 in 9.0 mi Calm Calm - 0.00 in Snow Light Snow
8:22 AM 32.0 °F - 32.0 °F 100% 29.90 in 9.0 mi Calm Calm - 0.01 in Snow Light Snow
8:53 AM 30.0 °F 26.5 °F 30.0 °F 100% 29.93 in 10.0 mi WSW 3.5 mph - 0.01 in   Mostly Cloudy
9:18 AM 30.2 °F - 30.2 °F 100% 29.91 in 10.0 mi Calm Calm - N/A   Mostly Cloudy
9:21 AM 30.2 °F - 30.2 °F 100% 29.91 in 7.0 mi Calm Calm - N/A   Mostly Cloudy
9:53 AM 32.0 °F 26.4 °F 30.9 °F 96% 29.95 in 10.0 mi WSW 5.8 mph - N/A   Mostly Cloudy
10:03 AM 32.0 °F 27.5 °F 32.0 °F 100% 29.93 in 10.0 mi WSW 4.6 mph - N/A   Overcast
10:37 AM 32.0 °F - 30.2 °F 93% 29.94 in 10.0 mi Calm Calm - 0.00 in   Overcast
10:51 AM 32.0 °F - 32.0 °F 100% 29.93 in 10.0 mi Calm Calm - 0.00 in   Overcast
10:53 AM 32.0 °F - 32.0 °F 100% 29.95 in 10.0 mi Calm Calm - 0.00 in   Overcast
11:10 AM 32.0 °F 28.7 °F 32.0 °F 100% 29.94 in 10.0 mi South 3.5 mph - N/A   Overcast
11:17 AM 32.0 °F 27.5 °F 32.0 °F 100% 29.94 in 10.0 mi South 4.6 mph - N/A   Overcast
11:24 AM 32.0 °F 26.4 °F 32.0 °F 100% 29.94 in 9.0 mi SSW 5.8 mph - 0.00 in Snow Light Snow
11:53 AM 33.1 °F 28.7 °F 33.1 °F 100% 29.96 in 9.0 mi South 4.6 mph - 0.00 in   Overcast
12:06 PM 33.8 °F 30.8 °F 33.8 °F 100% 29.94 in 9.0 mi SSE 3.5 mph - 0.01 in Snow Light Snow
12:31 PM 33.8 °F 30.8 °F 33.8 °F 100% 29.94 in 10.0 mi South 3.5 mph - 0.01 in   Overcast
12:53 PM 33.1 °F - 33.1 °F 100% 29.96 in 9.0 mi Calm Calm - 0.01 in Snow Light Snow
1:53 PM 34.0 °F - 32.0 °F 92% 29.95 in 10.0 mi Calm Calm - 0.01 in   Overcast
2:53 PM 34.0 °F 28.0 °F 33.1 °F 96% 29.96 in 10.0 mi SW 6.9 mph - N/A   Mostly Cloudy
3:53 PM 34.0 °F 31.0 °F 33.1 °F 96% 29.97 in 10.0 mi SW 3.5 mph - N/A   Overcast
4:53 PM 33.1 °F 30.0 °F 33.1 °F 100% 29.97 in 10.0 mi SSW 3.5 mph - N/A   Overcast
5:53 PM 34.0 °F - 34.0 °F 100% 29.98 in 10.0 mi Calm Calm - N/A   Overcast
6:21 PM 33.8 °F - 33.8 °F 100% 29.96 in 10.0 mi Calm Calm - N/A   Overcast
6:53 PM 33.1 °F - 32.0 °F 96% 29.98 in 10.0 mi Calm Calm - N/A   Mostly Cloudy
7:02 PM 32.0 °F - 32.0 °F 100% 29.96 in 3.0 mi Calm Calm - N/A   Mostly Cloudy
7:53 PM 32.0 °F - 32.0 °F 100% 29.98 in 10.0 mi Calm Calm - N/A   Overcast
8:15 PM 32.0 °F - 32.0 °F 100% 29.96 in 10.0 mi Calm Calm - N/A   Overcast
8:35 PM 32.0 °F - 32.0 °F 100% 29.95 in 10.0 mi Calm Calm - N/A   Overcast
8:53 PM 32.0 °F - 32.0 °F 100% 29.98 in 10.0 mi Calm Calm - N/A   Mostly Cloudy
9:06 PM 32.0 °F - 32.0 °F 100% 29.95 in 10.0 mi Calm Calm - N/A   Overcast
9:16 PM 32.0 °F - 32.0 °F 100% 29.95 in 6.0 mi Calm Calm - N/A   Overcast
9:20 PM 32.0 °F - 32.0 °F 100% 29.95 in 4.0 mi Calm Calm - N/A   Overcast
9:53 PM 32.0 °F - 32.0 °F 100% 29.97 in 10.0 mi Calm Calm - N/A   Overcast
10:14 PM 32.0 °F - 32.0 °F 100% 29.95 in 7.0 mi Calm Calm - N/A   Overcast
10:53 PM 32.0 °F - 32.0 °F 100% 29.96 in 10.0 mi Calm Calm - N/A   Mostly Cloudy
11:53 PM 33.1 °F 28.7 °F 32.0 °F 96% 29.95 in 10.0 mi SSE 4.6 mph - N/A   Overcast